Regional Weather Roundup
Issued by NWS

Home | Current Version | Previous Version | Graphics & Text | Print | Product List | Glossary On
Versions: 1 2 3 4 5 6 7 8 9 10 11 12 13 14 15 16 17 18 19 20 21 22 23 24 25 26 27 28 29 30 31 32 33 34 35 36 37 38 39 40 41 42 43 44 45 46 47 48 49 50
000
ASUS45 KTFX 252204
RWRMT
MONTANA HOURLY WEATHER ROUNDUP
NATIONAL WEATHER SERVICE GREAT FALLS MT
304 PM MST SUN JAN 25 2015

NOTE: "FAIR" INDICATES FEW OR NO CLOUDS BELOW 12000 FEET WITH NO
SIGNIFICANT WEATHER AND/OR OBSTRUCTIONS TO VISIBILITY.

* THESE STATIONS ARE NOT UNDER NWS QUALITY CONTROL. THEY DO NOT
   REPORT WEATHER SUCH AS PRECIPITATION OR FOG.

MTZ001>007-043-252300-
WEST OF THE DIVIDE
CITY           SKY/WX    TMP DP  RH WIND       PRES   REMARKS
KALISPELL      PTSUNNY   45  37  74 W3        30.13S
MISSOULA       PTSUNNY   37  36  96 CALM      30.19F
BUTTE          PTCLDY    54  27  35 SW8       30.24R
MULLAN PASS    PTCLDY    45  30  56 VRB7      30.23S
* ANACONDA     PTCLDY    55  28  35 SW13G18    N/A
* ESSEX        N/A       46  37  71 NE1        N/A
* LINCOLN      N/A       58  30  35 SW6G15     N/A
* LOOKOUT PASS N/A       48  36  63 N4         N/A
* POLSON       N/A       47  34  61 SE3        N/A
* RONAN APT    PTSUNNY   52  52 100 N/A        N/A
* SEELEY LAKE  N/A       56  29  36 SW5G12     N/A
* THOMP F APT  PTSUNNY   33  27  79 SE3        N/A
$$

MTZ008-052>055-252300-
SOUTHWEST MONTANA
CITY           SKY/WX    TMP DP  RH WIND       PRES   REMARKS
BOZEMAN        CLOUDY    45  34  65 SW6       30.21R
DILLON         PTCLDY    54  27  35 SW16      30.25R
* W YELLOWSTON CLOUDY    34  29  82 SW4G13     N/A
* THREE FORKS  CLOUDY    45  43  93 N/A        N/A
* BOULDER HILL N/A       50  28  43 SW8        N/A
* MONIDA PASS  N/A       28  28 100 SE11       N/A   WCI  18
* RAYNOLDS PAS N/A       29  10  45 SE22G29    N/A   WCI  15
* WHITEHALL    N/A       61  27  27 SW19G29    N/A
* WISE RIVER   N/A       54  28  37 W10G21     N/A
$$

MTZ009>010-012-014-046-048-049-054-252300-
EAST SLOPES AND CENTRAL MONTANA
CITY           SKY/WX    TMP DP  RH WIND       PRES   REMARKS
CUT BANK       PTSUNNY   54  32  43 W24G32    29.95S
GREAT FALLS    CLOUDY    57  30  36 SW22G31   30.01S
HELENA         PTSUNNY   63  30  29 W14G22    30.14F
MALMSTROM AFB  CLOUDY    57  32  39 SW26G35   30.03R
* DEARBORN     N/A       60  28  30 SE9G20     N/A
* EAST GLACIER N/A       53  28  38 SW17G27    N/A
* MONARCH      N/A       49  24  38 SW25G32    N/A
* PENDROY      N/A       53  32  45 NW8        N/A
* ROGERS PASS  N/A       50  27  41 E11G24     N/A
* SWEET GRASS  N/A       58  35  42 W14G20     N/A
$$

MTZ011-013-016-021-035-040-045-047-050-051-252300-
NORTH CENTRAL MONTANA
CITY           SKY/WX    TMP DP  RH WIND       PRES   REMARKS
HAVRE          CLOUDY    48  37  66 SW25G31   29.88S
LEWISTOWN      PTCLDY    52  28  40 CALM      29.99R
* N BAR RANCH  SUNNY     57  28  33 NW36G44   29.94R
* CHESTER      N/A       53  35  51 W8G14      N/A
* DENTON       N/A       51  30  45 W30G37     N/A
* GEYSER       N/A       57  28  33 W29G42     N/A
* JUDITH GAP   N/A       56  28  34 NW19G26    N/A
* LOMA         N/A       57  36  46 SW11G18    N/A
$$

MTZ017>020-022>027-061-062-252300-
NORTHEAST MONTANA
CITY           SKY/WX    TMP DP  RH WIND       PRES   REMARKS
GLASGOW        PTCLDY    50  37  61 W8        29.83R
GLENDIVE       PTCLDY    46  34  63 S9        29.87R
JORDAN         PTCLDY    54  39  57 W13       29.87S
SIDNEY         PTSUNNY   45  32  60 S7        29.88S
WOLF POINT     PTCLDY    48  36  63 SW5       29.83F
* BEAVER HILL  N/A       44  32  63 SW17       N/A
* CIRCLE       N/A       53  42  66 SW2G12     N/A
* LINDSAY DVD  N/A       50  38  64 W19        N/A
* NAVAJO       N/A       42  33  71 SW12       N/A
* SACO         N/A       54  40  59 W13G20     N/A
$$

MTZ028>042-056>058-252300-
SOUTHCENTRAL AND SOUTHEAST MONTANA
CITY           SKY/WX    TMP DP  RH WIND       PRES   REMARKS
BAKER          SUNNY     46  36  68 W12       29.88F
BILLINGS       PTSUNNY   63  30  29 W17       30.01R
LIVINGSTON     PTSUNNY   55  27  34 W33G47    30.08F
MILES CITY     PTCLDY    52  37  57 SW5       29.90S
* LAUREL APT   SUNNY     63  28  27 SW23G35    N/A
* ROUNDUP APT  SUNNY     63  28  27 W21G31     N/A
* ALZADA       N/A       48  35  61 SW11       N/A
* HYSHAM       N/A       57  33  40 W7G13      N/A
* LAME DEER    N/A       52  32  47 NW17G24    N/A
* REED POINT   N/A       61  31  32 W24G39     N/A
* ROSCOE HILL  N/A       60  16  18 NW9G33     N/A
$$

REGIONAL REPORTS...DAKOTAS
CITY           SKY/WX    TMP DP  RH WIND       PRES   REMARKS
WILLISTON      CLOUDY    43  30  60 S10       29.83F
DICKINSON      PTCLDY    45  30  56 SW10      29.86F
CROSBY         SUNNY     37  36  96 SW20G25   29.78F WCI  27
WATFORD CITY   SUNNY     41  32  70 S5        29.84S
BISMARCK       CLOUDY    37  32  82 SW5       29.93F WCI  33
GRAND FORKS    CLOUDY    27  16  63 S9        29.96F WCI  18
FARGO          PTSUNNY   27  16  63 S6        29.99F WCI  20
BUFFALO SD     PTSUNNY   52  32  47 SW13      29.84F
RAPID CITY     CLOUDY    50  21  32 SE7       29.96F
$$

REGIONAL REPORTS...WYOMING/IDAHO/WASHINGTON
CITY           SKY/WX    TMP DP  RH WIND       PRES   REMARKS
GILLETTE       SUNNY     54  34  47 W13       30.00S
SHERIDAN       SUNNY     52  36  55 CALM      30.01R
CODY           PTCLDY    57  25  29 W16G23    30.10R
YELLOWSTONE LA PTCLDY    32  27  82 CALM      30.39R
SALMON         PTSUNNY   36  27  70 CALM      30.35F
MULLAN PASS    PTCLDY    45  30  56 VRB7      30.23S
SAND POINT     PTSUNNY   45  45 100 SW5       30.20F
SPOKANE        PTSUNNY   52  45  77 N7        30.18F
$$

REGIONAL REPORTS...ALBERTA
CITY           SKY/WX    TMP DP  RH WIND       PRES   REMARKS
CALGARY        SUNNY     63  30  29 W8G18     29.79S

$$



USA.gov is the U.S. government's official web portal to all federal, state and local government web resources and services.